XNO189L EGGD-LPFR

Flight info

Callsign XNO189L
Flight time N/A
Altitude 34000
Route EXMOR N92 DAWLY DCT BHD DCT SALCO DCT IBISU/N0454F350 DCT BALDA DCT ABUPI DCT ORVED DCT UPULO DCT ALAGU
Aircraft A320/M-SDE3FGHIRWY/LB1

Departure

Time N/A
Airport Bristol Airport (EGGD)

Arrival

Time 2026-05-07 21:21
Airport Faro - Gago Coutinho International Airport (LPFR)
Time Latitude Longitude Altitude Speed Heading
2026-05-07 19:39 47.19498 -4.59786 33974 ft 445 kts 199°
2026-05-07 19:39 47.16510 -4.60979 33979 ft 445 kts 199°
2026-05-07 19:40 47.10529 -4.63361 33980 ft 445 kts 199°
2026-05-07 19:40 47.04545 -4.65717 33969 ft 446 kts 199°
2026-05-07 19:41 46.98531 -4.68011 33970 ft 447 kts 198°
2026-05-07 19:41 46.92511 -4.70300 33973 ft 447 kts 198°
2026-05-07 19:42 46.86491 -4.72609 33965 ft 447 kts 199°
2026-05-07 19:42 46.80467 -4.74914 33970 ft 448 kts 198°
2026-05-07 19:43 46.74432 -4.77209 33971 ft 448 kts 198°
2026-05-07 19:43 46.68391 -4.79499 33974 ft 449 kts 198°
2026-05-07 19:44 46.62351 -4.81793 33973 ft 449 kts 198°
2026-05-07 19:44 46.56309 -4.84086 33974 ft 449 kts 198°
2026-05-07 19:45 46.50267 -4.86366 33976 ft 449 kts 199°
2026-05-07 19:45 46.44224 -4.88637 33967 ft 448 kts 199°
2026-05-07 19:46 46.38188 -4.90905 33968 ft 448 kts 199°
2026-05-07 19:46 46.32150 -4.93173 33970 ft 448 kts 199°
2026-05-07 19:47 46.26108 -4.95434 33955 ft 448 kts 199°
2026-05-07 19:47 46.20066 -4.97693 33958 ft 449 kts 199°
2026-05-07 19:48 46.14020 -4.99949 33968 ft 449 kts 199°
2026-05-07 19:48 46.07969 -5.02194 33961 ft 449 kts 199°
2026-05-07 19:49 46.01916 -5.04431 33955 ft 449 kts 199°
2026-05-07 19:49 45.95861 -5.06669 33954 ft 449 kts 199°
2026-05-07 19:50 45.89803 -5.08912 33960 ft 450 kts 199°
2026-05-07 19:50 45.83744 -5.11143 33944 ft 450 kts 199°
2026-05-07 19:51 45.77681 -5.13375 33943 ft 450 kts 199°
2026-05-07 19:51 45.71651 -5.15589 33947 ft 451 kts 199°
2026-05-07 19:52 45.65565 -5.17814 33936 ft 451 kts 199°
2026-05-07 19:52 45.59477 -5.20043 33942 ft 452 kts 199°
2026-05-07 19:53 45.53384 -5.22260 33944 ft 452 kts 199°
2026-05-07 19:53 45.47286 -5.24479 33946 ft 452 kts 199°
2026-05-07 19:54 45.41181 -5.26685 33932 ft 453 kts 199°
2026-05-07 19:54 45.35070 -5.28886 33948 ft 453 kts 199°
2026-05-07 19:55 45.28953 -5.31089 33936 ft 454 kts 199°
2026-05-07 19:55 45.22834 -5.33291 33918 ft 454 kts 199°
2026-05-07 19:56 45.16708 -5.35500 33931 ft 455 kts 199°
2026-05-07 19:56 45.10573 -5.37712 33922 ft 455 kts 199°
2026-05-07 19:57 45.04425 -5.39908 33909 ft 456 kts 200°
2026-05-07 19:57 44.98264 -5.42104 33922 ft 457 kts 200°
2026-05-07 19:58 44.92092 -5.44303 33921 ft 458 kts 200°
2026-05-07 19:58 44.85913 -5.46494 33901 ft 458 kts 200°
2026-05-07 19:59 44.79728 -5.48684 33914 ft 458 kts 200°
2026-05-07 19:59 44.73540 -5.50870 33922 ft 458 kts 200°
2026-05-07 20:00 44.67354 -5.53053 33925 ft 459 kts 200°
2026-05-07 20:00 44.61185 -5.55313 33925 ft 455 kts 205°
2026-05-07 20:01 44.55410 -5.58746 33919 ft 450 kts 210°
2026-05-07 20:01 44.49722 -5.62277 33922 ft 450 kts 210°
2026-05-07 20:02 44.43948 -5.65837 33911 ft 450 kts 210°
2026-05-07 20:02 44.38214 -5.69355 33919 ft 450 kts 210°
2026-05-07 20:03 44.32517 -5.72850 33928 ft 449 kts 210°
2026-05-07 20:03 44.26803 -5.76349 33915 ft 444 kts 210°
2026-05-07 20:04 44.21260 -5.79727 33922 ft 430 kts 210°
2026-05-07 20:04 44.15793 -5.83067 33923 ft 429 kts 210°
2026-05-07 20:05 44.10295 -5.86425 33920 ft 428 kts 210°
2026-05-07 20:05 44.04840 -5.89747 33920 ft 428 kts 210°
2026-05-07 20:06 44.00302 -5.92495 33921 ft 428 kts 210°
2026-05-07 20:06 43.94847 -5.95794 33917 ft 428 kts 210°
2026-05-07 20:07 43.89393 -5.99097 33906 ft 428 kts 210°
2026-05-07 20:07 43.83937 -6.02391 33894 ft 427 kts 210°
2026-05-07 20:08 43.78479 -6.05675 33895 ft 427 kts 210°
2026-05-07 20:08 43.73026 -6.08953 33885 ft 427 kts 210°
2026-05-07 20:09 43.67576 -6.12216 33906 ft 427 kts 210°
2026-05-07 20:10 43.59419 -6.17092 33916 ft 425 kts 210°
2026-05-07 20:10 43.53996 -6.20326 33932 ft 424 kts 210°
2026-05-07 20:11 43.48589 -6.23554 33924 ft 423 kts 210°
2026-05-07 20:11 43.43189 -6.26756 33926 ft 421 kts 210°
2026-05-07 20:12 43.37836 -6.29924 33933 ft 418 kts 210°
2026-05-07 20:12 43.32507 -6.33082 33944 ft 417 kts 210°
2026-05-07 20:13 43.27188 -6.36218 33934 ft 415 kts 210°
2026-05-07 20:13 43.21890 -6.39336 33920 ft 414 kts 210°
2026-05-07 20:14 43.16610 -6.42448 33937 ft 412 kts 210°
2026-05-07 20:14 43.11347 -6.45549 33928 ft 412 kts 210°
2026-05-07 20:15 43.06092 -6.48630 33936 ft 410 kts 210°
2026-05-07 20:15 43.00856 -6.51690 33929 ft 409 kts 210°
2026-05-07 20:16 42.95667 -6.54725 33935 ft 408 kts 210°
2026-05-07 20:16 42.90456 -6.57752 33932 ft 406 kts 210°
2026-05-07 20:17 42.85227 -6.60784 33922 ft 405 kts 210°
2026-05-07 20:17 42.80037 -6.63802 33902 ft 405 kts 210°
2026-05-07 20:18 42.74846 -6.66826 33906 ft 405 kts 210°
2026-05-07 20:18 42.69666 -6.69829 33909 ft 405 kts 210°
2026-05-07 20:19 42.64469 -6.72824 33915 ft 405 kts 210°
2026-05-07 20:19 42.59289 -6.75821 33913 ft 405 kts 210°
2026-05-07 20:20 42.54102 -6.78807 33911 ft 405 kts 210°
2026-05-07 20:20 42.48919 -6.81779 33913 ft 405 kts 210°
2026-05-07 20:21 42.43733 -6.84753 33916 ft 404 kts 209°
2026-05-07 20:21 42.38552 -6.87720 33893 ft 404 kts 208°
2026-05-07 20:22 42.33377 -6.90676 33909 ft 403 kts 208°
2026-05-07 20:22 42.28211 -6.93629 33902 ft 403 kts 208°
2026-05-07 20:23 42.23033 -6.96581 33895 ft 405 kts 208°
2026-05-07 20:23 42.17832 -6.99528 33884 ft 406 kts 208°
2026-05-07 20:24 42.12659 -7.02457 33892 ft 406 kts 208°
2026-05-07 20:24 42.07420 -7.05428 33897 ft 406 kts 208°
2026-05-07 20:25 42.02249 -7.08356 33901 ft 406 kts 208°
2026-05-07 20:25 41.97041 -7.11294 33884 ft 406 kts 208°
2026-05-07 20:26 41.91803 -7.14243 33891 ft 405 kts 208°
2026-05-07 20:26 41.86643 -7.17149 33895 ft 405 kts 208°
2026-05-07 20:27 41.81452 -7.20064 33898 ft 404 kts 208°
2026-05-07 20:27 41.76250 -7.22933 33901 ft 406 kts 204°
2026-05-07 20:28 41.70674 -7.24438 33913 ft 411 kts 193°
2026-05-07 20:28 41.65014 -7.25454 33923 ft 410 kts 193°
2026-05-07 20:29 41.59336 -7.26477 33915 ft 408 kts 193°
2026-05-07 20:29 41.53710 -7.27496 33893 ft 408 kts 193°
2026-05-07 20:30 41.48085 -7.28516 33894 ft 408 kts 193°
2026-05-07 20:30 41.42457 -7.29528 33899 ft 408 kts 193°
2026-05-07 20:31 41.36819 -7.30541 33902 ft 409 kts 193°
2026-05-07 20:31 41.31184 -7.31562 33891 ft 409 kts 193°
2026-05-07 20:32 41.25544 -7.32578 33899 ft 409 kts 193°
2026-05-07 20:32 41.19891 -7.33588 33900 ft 410 kts 193°
2026-05-07 20:33 41.14237 -7.34598 33907 ft 410 kts 193°
2026-05-07 20:33 41.08612 -7.35599 33899 ft 411 kts 193°
2026-05-07 20:34 41.02944 -7.36606 33895 ft 411 kts 193°
2026-05-07 20:34 40.97279 -7.37618 33897 ft 411 kts 193°
2026-05-07 20:35 40.91611 -7.38625 33912 ft 411 kts 193°
2026-05-07 20:35 40.85941 -7.39634 33894 ft 411 kts 193°
2026-05-07 20:36 40.80264 -7.40637 33897 ft 412 kts 193°
2026-05-07 20:36 40.74582 -7.41635 33906 ft 412 kts 193°
2026-05-07 20:37 40.68899 -7.42637 33913 ft 412 kts 193°
2026-05-07 20:37 40.63218 -7.43635 33899 ft 412 kts 193°
2026-05-07 20:38 40.57555 -7.44630 33944 ft 409 kts 193°
2026-05-07 20:38 40.51925 -7.45616 33954 ft 407 kts 193°
2026-05-07 20:39 40.46320 -7.46597 33949 ft 406 kts 193°
2026-05-07 20:39 40.40731 -7.47574 33946 ft 405 kts 193°
2026-05-07 20:40 40.35155 -7.48548 33938 ft 404 kts 193°
2026-05-07 20:40 40.29590 -7.49516 33931 ft 403 kts 193°
2026-05-07 20:41 40.24033 -7.50480 33923 ft 403 kts 193°
2026-05-07 20:41 40.18478 -7.51448 33912 ft 402 kts 193°
2026-05-07 20:42 40.12933 -7.52410 33908 ft 402 kts 193°
2026-05-07 20:42 40.07398 -7.53368 33911 ft 401 kts 193°
2026-05-07 20:43 40.01868 -7.54330 33910 ft 401 kts 193°
2026-05-07 20:43 39.96346 -7.55283 33906 ft 400 kts 193°
2026-05-07 20:44 39.90833 -7.56227 33912 ft 399 kts 193°
2026-05-07 20:44 39.85333 -7.57170 33913 ft 398 kts 193°
2026-05-07 20:45 39.79843 -7.58120 33907 ft 398 kts 193°
2026-05-07 20:45 39.74354 -7.59063 33901 ft 398 kts 193°
2026-05-07 20:46 39.68870 -7.59998 33919 ft 397 kts 192°
2026-05-07 20:46 39.63392 -7.60935 33924 ft 397 kts 192°
2026-05-07 20:47 39.57928 -7.61869 33931 ft 396 kts 192°
2026-05-07 20:47 39.52469 -7.62797 33924 ft 395 kts 192°
2026-05-07 20:48 39.47908 -7.63572 33924 ft 395 kts 192°
2026-05-07 20:48 39.42506 -7.64492 33926 ft 394 kts 192°
2026-05-07 20:49 39.37007 -7.65210 33931 ft 398 kts 185°
2026-05-07 20:49 39.31459 -7.65208 33915 ft 398 kts 186°
2026-05-07 20:50 39.25960 -7.65199 33932 ft 398 kts 186°
2026-05-07 20:50 39.20398 -7.65199 33941 ft 397 kts 186°
2026-05-07 20:51 39.14875 -7.65198 33941 ft 396 kts 186°
2026-05-07 20:51 39.09405 -7.65198 33921 ft 396 kts 186°
2026-05-07 20:52 39.03909 -7.65197 33928 ft 395 kts 186°
2026-05-07 20:52 38.98407 -7.65038 33933 ft 396 kts 184°
2026-05-07 20:53 38.92899 -7.64769 33936 ft 396 kts 184°
2026-05-07 20:53 38.87404 -7.64522 33936 ft 395 kts 184°
2026-05-07 20:54 38.81910 -7.64303 33938 ft 394 kts 185°
2026-05-07 20:54 38.76429 -7.64091 33940 ft 394 kts 185°
2026-05-07 20:55 38.70953 -7.63880 33943 ft 394 kts 185°
2026-05-07 20:55 38.65478 -7.63670 33944 ft 394 kts 185°
2026-05-07 20:56 38.60001 -7.63450 33932 ft 393 kts 185°
2026-05-07 20:56 38.54537 -7.63230 33945 ft 393 kts 185°
2026-05-07 20:57 38.49074 -7.63012 33944 ft 392 kts 185°
2026-05-07 20:57 38.43598 -7.62804 32846 ft 396 kts 184°
2026-05-07 20:57 38.40853 -7.62700 31883 ft 392 kts 184°
2026-05-07 20:58 38.38144 -7.62590 31413 ft 377 kts 183°
2026-05-07 20:58 38.35571 -7.62483 30989 ft 373 kts 183°
2026-05-07 20:58 38.32986 -7.62378 30552 ft 370 kts 183°
2026-05-07 20:58 38.30429 -7.62276 30126 ft 366 kts 182°
2026-05-07 20:59 38.27891 -7.62179 29667 ft 364 kts 182°
2026-05-07 20:59 38.25368 -7.62085 29257 ft 362 kts 182°
2026-05-07 20:59 38.22858 -7.61991 28849 ft 360 kts 182°
2026-05-07 20:59 38.20361 -7.61896 28457 ft 358 kts 182°
2026-05-07 21:00 38.17886 -7.61799 28122 ft 351 kts 182°
2026-05-07 21:00 38.15506 -7.61699 27847 ft 334 kts 182°
2026-05-07 21:00 38.13213 -7.61603 27276 ft 326 kts 182°
2026-05-07 21:00 38.10959 -7.61512 26885 ft 321 kts 182°
2026-05-07 21:01 38.08751 -7.61425 26559 ft 317 kts 183°
2026-05-07 21:01 38.06552 -7.61385 26141 ft 315 kts 184°
2026-05-07 21:01 38.04331 -7.61390 25722 ft 315 kts 184°
2026-05-07 21:01 38.02134 -7.61411 25289 ft 316 kts 184°
2026-05-07 21:02 37.99929 -7.61430 24868 ft 318 kts 184°
2026-05-07 21:02 37.97714 -7.61446 24414 ft 319 kts 184°
2026-05-07 21:02 37.95488 -7.61458 23964 ft 321 kts 184°
2026-05-07 21:02 37.93278 -7.61463 23502 ft 323 kts 184°
2026-05-07 21:03 37.91011 -7.61466 23136 ft 316 kts 184°
2026-05-07 21:03 37.88877 -7.61460 22935 ft 298 kts 184°
2026-05-07 21:03 37.86832 -7.61450 22508 ft 291 kts 184°
2026-05-07 21:03 37.84831 -7.61447 22004 ft 285 kts 184°
2026-05-07 21:04 37.82858 -7.61448 21469 ft 282 kts 184°
2026-05-07 21:04 37.80905 -7.61451 20972 ft 279 kts 184°
2026-05-07 21:04 37.78973 -7.61454 20572 ft 277 kts 184°
2026-05-07 21:04 37.77057 -7.61458 20184 ft 274 kts 184°
2026-05-07 21:05 37.75154 -7.61461 19812 ft 274 kts 184°
2026-05-07 21:05 37.73242 -7.61466 19433 ft 275 kts 184°
2026-05-07 21:05 37.71337 -7.61469 19232 ft 270 kts 184°
2026-05-07 21:05 37.69483 -7.61468 18949 ft 263 kts 184°
2026-05-07 21:06 37.67666 -7.61467 18500 ft 259 kts 184°
2026-05-07 21:06 37.65874 -7.61465 18026 ft 257 kts 184°
2026-05-07 21:06 37.64096 -7.61464 17605 ft 255 kts 184°
2026-05-07 21:06 37.62323 -7.61466 17247 ft 255 kts 184°
2026-05-07 21:07 37.60552 -7.61468 16903 ft 254 kts 184°
2026-05-07 21:07 37.58786 -7.61469 16574 ft 254 kts 183°
2026-05-07 21:07 37.57023 -7.61470 16237 ft 253 kts 183°
2026-05-07 21:07 37.55265 -7.61473 15903 ft 252 kts 183°
2026-05-07 21:08 37.53509 -7.61476 15574 ft 252 kts 182°
2026-05-07 21:08 37.51760 -7.61477 15248 ft 251 kts 182°
2026-05-07 21:08 37.50015 -7.61478 14923 ft 251 kts 182°
2026-05-07 21:08 37.48269 -7.61476 14604 ft 252 kts 182°
2026-05-07 21:09 37.46519 -7.61474 14258 ft 251 kts 181°
2026-05-07 21:09 37.44797 -7.61472 13951 ft 251 kts 181°
2026-05-07 21:09 37.43026 -7.61473 13605 ft 251 kts 181°
2026-05-07 21:09 37.41282 -7.61476 13261 ft 250 kts 181°
2026-05-07 21:10 37.39542 -7.61480 12935 ft 250 kts 181°
2026-05-07 21:10 37.37810 -7.61482 12604 ft 248 kts 181°
2026-05-07 21:10 37.36083 -7.61482 12274 ft 248 kts 181°
2026-05-07 21:10 37.34380 -7.61482 11948 ft 248 kts 181°
2026-05-07 21:11 37.32659 -7.61482 11623 ft 247 kts 181°
2026-05-07 21:11 37.30919 -7.61482 11279 ft 247 kts 181°
2026-05-07 21:11 37.27483 -7.61486 10611 ft 247 kts 181°
2026-05-07 21:12 37.25765 -7.61485 10266 ft 247 kts 180°
2026-05-07 21:12 37.24043 -7.61483 9929 ft 248 kts 180°
2026-05-07 21:12 37.22316 -7.61481 9579 ft 248 kts 180°
2026-05-07 21:12 37.20617 -7.61478 9351 ft 243 kts 180°
2026-05-07 21:13 37.18930 -7.61475 8916 ft 247 kts 180°
2026-05-07 21:13 37.17243 -7.61475 8755 ft 239 kts 179°
2026-05-07 21:13 37.15592 -7.61477 8501 ft 236 kts 179°
2026-05-07 21:13 37.13955 -7.61478 8196 ft 235 kts 179°
2026-05-07 21:14 37.12316 -7.61479 7869 ft 236 kts 178°
2026-05-07 21:14 37.10681 -7.61481 7575 ft 234 kts 178°
2026-05-07 21:14 37.09051 -7.61517 7256 ft 235 kts 183°
2026-05-07 21:14 37.07441 -7.61955 6918 ft 240 kts 196°
2026-05-07 21:15 37.05859 -7.62794 6326 ft 254 kts 200°
2026-05-07 21:15 37.04249 -7.63683 5982 ft 249 kts 200°
2026-05-07 21:15 37.02675 -7.64555 5476 ft 247 kts 200°
2026-05-07 21:15 37.01115 -7.65419 4984 ft 244 kts 202°
2026-05-07 21:16 36.99580 -7.66264 4643 ft 236 kts 202°
2026-05-07 21:16 36.98201 -7.67321 4481 ft 233 kts 229°
2026-05-07 21:16 36.97566 -7.69142 4291 ft 232 kts 268°
2026-05-07 21:16 36.97751 -7.71110 3978 ft 226 kts 281°
2026-05-07 21:17 36.98056 -7.73035 3667 ft 226 kts 281°
2026-05-07 21:17 36.98345 -7.74962 3369 ft 225 kts 281°
2026-05-07 21:17 36.98621 -7.76875 3066 ft 220 kts 281°
2026-05-07 21:17 36.98886 -7.78717 2775 ft 211 kts 282°
2026-05-07 21:18 36.99139 -7.80481 2499 ft 199 kts 283°
2026-05-07 21:18 36.99370 -7.82103 2254 ft 179 kts 284°
2026-05-07 21:18 36.99579 -7.83559 2016 ft 164 kts 284°
2026-05-07 21:18 36.99773 -7.84917 1822 ft 150 kts 285°
2026-05-07 21:19 36.99950 -7.86151 1609 ft 139 kts 285°
2026-05-07 21:19 37.00119 -7.87325 1424 ft 136 kts 284°
2026-05-07 21:19 37.00284 -7.88476 1236 ft 133 kts 285°
2026-05-07 21:19 37.00445 -7.89600 1063 ft 131 kts 284°
2026-05-07 21:20 37.00604 -7.90713 878 ft 129 kts 282°
2026-05-07 21:20 37.00763 -7.91819 720 ft 130 kts 281°
2026-05-07 21:20 37.00921 -7.92936 521 ft 130 kts 281°
2026-05-07 21:20 37.01077 -7.94050 371 ft 129 kts 283°
2026-05-07 21:21 37.01238 -7.95154 215 ft 130 kts 282°
2026-05-07 21:21 37.01400 -7.96271 44 ft 130 kts 281°
2026-05-07 21:21 37.01536 -7.97230 19 ft 77 kts 279°
2026-05-07 21:21 37.01590 -7.97603 19 ft 31 kts 280°
2026-05-07 21:22 37.01618 -7.97808 19 ft 15 kts 280°
2026-05-07 21:22 37.01689 -7.97843 20 ft 13 kts 21°
2026-05-07 21:22 37.01742 -7.97763 20 ft 11 kts 68°
2026-05-07 21:22 37.01763 -7.97685 20 ft 7 kts 73°
2026-05-07 21:23 37.01768 -7.97630 20 ft 6 kts 90°
2026-05-07 21:23 37.01767 -7.97577 20 ft 6 kts 93°
2026-05-07 21:23 37.01760 -7.97520 20 ft 7 kts 102°
2026-05-07 21:23 37.01749 -7.97460 20 ft 7 kts 99°
2026-05-07 21:24 37.01743 -7.97394 22 ft 8 kts 97°
2026-05-07 21:24 37.01735 -7.97321 20 ft 9 kts 100°
2026-05-07 21:24 37.01721 -7.97236 20 ft 10 kts 99°
2026-05-07 21:24 37.01708 -7.97152 20 ft 10 kts 103°
2026-05-07 21:25 37.01696 -7.97071 20 ft 10 kts 101°
2026-05-07 21:25 37.01685 -7.96999 23 ft 7 kts 101°
2026-05-07 21:25 37.01677 -7.96945 20 ft 7 kts 100°
2026-05-07 21:25 37.01665 -7.96850 20 ft 15 kts 98°
2026-05-07 21:26 37.01646 -7.96721 20 ft 15 kts 101°
2026-05-07 21:26 37.01630 -7.96606 20 ft 10 kts 99°
2026-05-07 21:26 37.01648 -7.96546 22 ft 7 kts 41°
2026-05-07 21:26 37.01699 -7.96528 20 ft 9 kts 10°
2026-05-07 21:27 37.01756 -7.96510 20 ft 7 kts 29°
2026-05-07 21:27 37.01773 -7.96458 21 ft 7 kts 90°
2026-05-07 21:27 37.01775 -7.96431 20 ft 2 kts 64°
2026-05-07 21:27 37.01786 -7.96424 20 ft 2 kts 27°
2026-05-07 21:28 37.01812 -7.96414 20 ft 7 kts 10°
2026-05-07 21:28 37.01848 -7.96407 22 ft 3 kts 10°
2026-05-07 21:28 37.01855 -7.96405 21 ft 0 kts 10°